Showing default

BEIDOU 3M19, 44864

Orbit data source: Space-Track

BEIDOU 3M19, 44864 is a payload satellite owned by CNSA (CN) in MEO that was launched on Mon, 16 Dec 2019 UTC via a CHANG ZHENG 3B/YZ-1 launch vehicle from the Xichang Space Center, China (XSC). Payloads include a variety of satellites, spacecraft, and rockets equipped with specific instruments for various scientific and technological missions. These include communications satellites like Starlink; space stations such as the ISS; scientific satellites like the Hubble; Earth observation satellites from companies like Planet Labs, Umbra, and HawkEye 360; GPS; miniature CubeSats for education and research; and military/defense satellites.

Loading next visibility...
BEIDOU 3M19 details
Identifier
44864, 2019-090A
Orbit
MEO
Last TLE update16 hours ago
Origin
Flag of CNCNSA (CN / PRC)
ManufacturerCAST
MissionOperational Defense Navigation
Bus & MotorBD-3M, Unknown motor
Mass1,014 kg wet, ~850 kg dry
Launch date (UTC)
2019-12-16 (5 years ago)
Launch vehicle
CHANG ZHENG 3B/YZ-1
Launch site
Xichang Space Center, China (XSC)
Object type
Payload
Rocket body
Debris
Shape & HBRBox + 2 Pan, Unknown HBR
Radar Cross Section8.984 m², Large (>1 m²)

Expand to show TLE details & history

TLE from 16 hours ago
0 BEIDOU 3M19
1 44864U 19090A   24348.54777128 -.00000061  00000-0  00000+0 0  9994
2 44864  56.0763  81.0660 0017500 279.4430  78.5849  1.86231250 33979
Epoch: 2024-12-13T13:08Z
Definitive object data (Epoch: 2024-12-13T13:08:47.438Z)
Latitude-1.47199°
Longitude160.16978°
Altitude21,519.009 km
Speed3.781 km/s
True Right ascension05h 20m 19s
True Declination-1° 28' 11"
Sunlit
Object was in daylight at TLE epoch
Visualization TLE readout
Latitude53.73911°
Longitude-132.70819°
Altitude21,580.448 km
Speed3.774 km/s
Apparent Right ascension10h 52m 19s
Apparent Declination46° 03' 10"
Sunlit
Object is in daylight
Visualization observer readout
Local Sidereal Time03:22:31
Azimuth41.606° NE
Elevation14.994°
Doppler factor1
Orbital elements
Apogee altitude21,576.828 km
Perigee altitude21,479.156 km
Semi-major axis27,906.129 km
Eccentricity0.00175
Inclination56.0763°
RAAN81.066°
Arg. of periapsis279.443°
True anomaly78.78155°
Mean anomaly78.5849°
Eccentric anomaly78.68322°
Mean motion0.46558 °/min
BSTARUnknown
Orbital period773.23 mins
Loading maneuver chart data...
Loading historical data...
Loading historical data...
Loading historical data...
Loading historical data...
Loading historical data...
Loading historical data...
Loading historical data...
Other satellites on launch #90 in the year 2019 (2019-12-16 UTC)

BEIDOU 3M19 Visibility forecast

Observer location: undefined°, undefined

Span
Click to sort rows by Start time (UTC) header in descending order
Start Az.
Max El. time (UTC)
Max El. Az.
Max El.
End time (UTC)
End Az.
22 mins2024-12-14 04:49:34.793Z41.622° NE2024-12-14 04:49:34.793Z41.622° NE14.501°2024-12-14 05:11:34.793Z35.356° NE
277 mins2024-12-14 17:31:34.793Z318.625° NNW2024-12-14 19:48:34.793Z278.57° WNW35.742°2024-12-14 22:08:34.793Z220.934° SW
91 mins2024-12-15 03:18:34.793Z133.157° SE2024-12-15 04:49:34.793Z101.548° ESE31.307°2024-12-15 04:49:34.793Z101.548° ESE
|